Showing default

SJ-11-08, 40286

Orbit data source: Space-Track

SJ-11-08, 40286 is a payload satellite owned by CNSA (CN) in SSO that was launched on Mon, 27 Oct 2014 UTC via a CHANG ZHENG 2C launch vehicle from the Jiuquan Satellite Launch Center, China (JSC). Payload-class satellites include a variety of spacecraft equipped with specific instruments for various scientific and technological missions. These include communications satellites like Starlink; space stations such as the ISS; scientific satellites like the Hubble; Earth observation satellites from companies like Planet Labs, Umbra, and HawkEye 360; GPS; miniature CubeSats for education and research; and military/defense satellites.

Loading next visibility...
Identifier
40286, 2014-066A
Orbit
SSO
Country
Flag of CNCN / PRC
Related business
Manufacturer
DFH
Mission
Operational Defense Early Warn
Bus & Motor
CAST-2000?, Unknown motor
Mass
~300 kg wet, ~300 kg dry
Launch date (UTC)
2014-10-27 (11 years ago)
Launch vehicle
CHANG ZHENG 2C
Launch site
Jiuquan Satellite Launch Center, China (JSC)
Object type
Payload
Rocket body
Debris
Shape & HBR
Box + 2 Pan, 1.5 m
Radar Cross Section
2.045 m², Large (>1 m²)

Expand to show TLE details & history
Last TLE update: 18 hours ago

TLE from 18 hours ago
0 SJ-11-08
1 40286U 14066A   25260.36475265  .00000688  00000-0  13590-3 0  9993
2 40286  98.3143  36.2865 0012333  13.5243 346.6287 14.65584616581242
Epoch: 2025-09-17T08:45Z
TLE epoch observation values (Epoch: 2025-09-17T08:45:14.628Z)
Latitude
-0.00015°
Longitude
-91.56618°
Altitude
669.724 km
Speed
7.527 km/s
True Right ascension
02h 25m 08s
True Declination
0° 00' 01"
Sunlit
Object was in full shadow at epoch
Visualization orbit readout
Latitude
Unknown
Longitude
Unknown
Altitude
Unknown
Speed
Unknown
Apparent Right ascension
Unknown
Apparent Declination
Unknown
Sunlit
N/A
Visualization observer readout
Local Sidereal Time
19:10:59
Azimuth
Unknown
Elevation
Unknown
Doppler factor
Unknown
Orbital elements
Apogee altitude
680.973 km
Perigee altitude
663.583 km
Semi-major axis
7,050.415 km
Eccentricity
0.00123
Inclination
98.3143°
RAAN
36.2865°
Arg. of periapsis
13.5243°
True anomaly
346.59597°
Mean anomaly
346.6287°
Eccentric anomaly
346.61234°
Mean motion
3.66624 °/min
Orbital period
98.19 mins
BSTAR
0.0001359
Loading maneuver chart data...
Computing Atmospheric mass density...
Loading historical data...
Loading historical data...
Loading historical data...
Loading historical data...
Loading historical data...
Loading historical data...
Loading historical data...
Other satellites on launch #66 in the year 2014 (2014-10-27 UTC)

Documentation

Showing up to 5 results
|